Miscellaneous Local Product
Issued by NWS Hastings, NE

Home | Current Version | Previous Version | Graphics & Text | Print | Product List | Glossary On
Versions: 1 2 3 4 5 6 7 8 9 10 11 12 13 14 15 16 17 18 19 20 21 22 23 24 25 26 27 28 29 30 31 32 33 34 35 36 37 38 39 40 41 42 43 44 45 46 47 48 49 50
292
AXUS43 KGID 251602
MISGRI

GID CWA HOURLY WEATHER ROUNDUP
NATIONAL WEATHER SERVICE HASTINGS NE
1100 AM CDT SUN SEP 25 2016

NOTE: "FAIR" INDICATES FEW OR NO CLOUDS BELOW 12,000 FEET WITH NO
SIGNIFICANT WEATHER AND/OR OBSTRUCTIONS TO VISIBILITY.

...SOUTH CENTRAL NEBRASKA...

CITY           SKY/WX    TMP DP  RH WIND       PRES   REMARKS
GRAND ISLAND   SUNNY     65  44  46 NW20G31   30.23R
HASTINGS       SUNNY     64  44  48 NW22G35   30.25R
KEARNEY        SUNNY     64  41  42 N23G33    30.25S
ORD            MOSUNNY   63  43  48 NW22G36   30.21R
YORK           SUNNY     64  46  52 NW18G26   30.20R
AURORA         SUNNY     64  45  48 NW18G28   30.22R
LEXINGTON      SUNNY     63  43  47 NW21G28   30.29R
HOLDREGE       SUNNY     63  42  46 NW15G23   30.28R
HEBRON         PTSUNNY   64  47  55 N17G23    30.21S

...NEBRASKA PANHANDLE...

CITY           SKY/WX    TMP DP  RH WIND       PRES   REMARKS
CHADRON        SUNNY     57  38  48 NW23G31   30.39R
ALLIANCE       SUNNY     57  34  41 NW21G35   30.38R
SCOTTSBLUFF    PTSUNNY   58  40  51 NW21G29   30.44R
SIDNEY         LGT RAIN  58  39  49 NW25G33   30.43R

...WESTERN AND NORTH CENTRAL NEBRASKA...

CITY           SKY/WX    TMP DP  RH WIND       PRES   REMARKS
VALENTINE      SUNNY     60  34  37 NW24G36   30.27R
AINSWORTH      SUNNY     60  37  43 NW29G40   30.25R
ONEILL         PTSUNNY   62  42  48 NW29G36   30.19S
BROKEN BOW     SUNNY     62  40  44 NW26G40   30.25R
IMPERIAL       SUNNY     62  35  36 NW28G40   30.35F
NORTH PLATTE   SUNNY     65  41  41 NW21G29   30.31S
MCCOOK         SUNNY     65  41  41 NW22G28   30.32R

...EASTERN NEBRASKA...

CITY           SKY/WX    TMP DP  RH WIND       PRES   REMARKS
NORFOLK        MOSUNNY   64  45  49 NW23G32   30.14R
SO SIOUX CITY  PTSUNNY   65  50  58 W22G33    30.07S
TEKAMAH        MOSUNNY   66  48  52 NW16G29   30.12R
COLUMBUS       SUNNY    N/A N/A N/A NW18G28   30.17R
ALBION         SUNNY     63  45  51 NW23G33   30.18R
OMAHA EPPLEY   CLOUDY    62  50  64 NW10      30.14R
OFFUTT AFB     CLOUDY    62  50  64 NW12      30.14R
MILLARD        CLOUDY    62  50  64 W8        30.15S
LINCOLN        MOSUNNY   65  47  52 NW15G23   30.18S
NEBRASKA CITY  CLOUDY    61  43  52 NW12      30.17S
BEATRICE       CLOUDY    62  50  66 NW10      30.20S
FALLS CITY     CLOUDY    63  53  70 NW9       30.16R

...NORTHERN KANSAS...

CITY           SKY/WX    TMP DP  RH WIND       PRES   REMARKS
GOODLAND       SUNNY     61  37  41 N23G31    30.38R
HILL CITY      SUNNY     65  45  48 N17G24    30.32R
NORTON         SUNNY     64  37  36 NW17G23   30.30S
PHILLIPSBURG   SUNNY     66  43  42 NW20G26   30.29R
SMITH CENTER   SUNNY     66  45  45 N22G29    30.27R
HAYS           SUNNY     66  43  42 N17       30.29R
CONCORDIA      CLOUDY    62  49  62 N10       30.23S
SALINA         CLOUDY    64  51  62 N13       30.24S
TOPEKA         LGT RAIN  60  55  83 N5        30.18R



USA.gov is the U.S. government's official web portal to all federal, state and local government web resources and services.